| time (UTC) | temp C | wind direction | speed KPH | gust KPH | rain 1hr cm | rain 24hr cm | rain mn cm | humidity % | barometer mb |
| 20260510013642 | 17 | 124 | 0.0 | 0.0 | 0.00 | 0.03 | 0.03 | 71 | 1004.3 |
| 20260510013138 | 17 | 124 | 0.0 | 0.0 | 0.00 | 0.03 | 0.03 | 70 | 1004.3 |
| 20260510012638 | 17 | 125 | 0.0 | 0.0 | 0.00 | 0.03 | 0.03 | 70 | 1004.4 |
| 20260510012134 | 17 | 126 | 0.0 | 0.0 | 0.00 | 0.03 | 0.03 | 71 | 1004.2 |
| 20260510011634 | 17 | 132 | 0.0 | 0.0 | 0.00 | 0.03 | 0.03 | 68 | 1004.2 |
| 20260510011130 | 18 | 126 | 0.0 | 0.0 | 0.00 | 0.03 | 0.03 | 68 | 1004.2 |
| 20260510010626 | 18 | 126 | 0.0 | 0.0 | 0.00 | 0.03 | 0.03 | 69 | 1004.2 |
| 20260510010124 | 18 | 125 | 0.0 | 0.0 | 0.00 | 0.03 | 0.03 | 69 | 1004.3 |
| 20260510005619 | 18 | 126 | 0.0 | 0.0 | 0.00 | 0.03 | 0.03 | 69 | 1004.0 |
| 20260510005117 | 19 | 130 | 0.0 | 0.0 | 0.00 | 0.03 | 0.03 | 68 | 1003.9 |
| 20260510004615 | 20 | 130 | 0.0 | 0.0 | 0.00 | 0.03 | 0.03 | 67 | 1003.8 |
| 20260510004113 | 20 | 131 | 0.0 | 0.0 | 0.00 | 0.03 | 0.03 | 68 | 1003.8 |
| 20260510003609 | 20 | 138 | 0.0 | 0.0 | 0.00 | 0.03 | 0.03 | 66 | 1003.8 |
| 20260510003105 | 21 | 132 | 0.0 | 0.0 | 0.00 | 0.03 | 0.03 | 65 | 1003.9 |
| 20260510002600 | 21 | 131 | 0.0 | 0.0 | 0.00 | 0.03 | 0.03 | 62 | 1003.7 |
| 20260510002057 | 22 | 135 | 0.0 | 0.0 | 0.00 | 0.03 | 0.03 | 59 | 1003.5 |
| 20260510001555 | 22 | 135 | 0.0 | 0.0 | 0.00 | 0.03 | 0.03 | 57 | 1003.8 |
| 20260510001054 | 23 | 144 | 1.6 | 1.6 | 0.00 | 0.03 | 0.03 | 52 | 1003.7 |
| 20260510000554 | 23 | 139 | 0.0 | 0.0 | 0.00 | 0.03 | 0.03 | 53 | 1003.7 |
| 20260510000051 | 24 | 148 | 1.6 | 1.6 | 0.00 | 0.03 | 0.03 | 49 | 1003.9 |
| 20260509235547 | 25 | 153 | 1.6 | 1.6 | 0.00 | 0.03 | 0.03 | 47 | 1003.9 |
| 20260509235044 | 26 | 142 | 0.0 | 1.6 | 0.00 | 0.03 | 0.03 | 44 | 1003.6 |
| 20260509234540 | 27 | 137 | 0.0 | 0.0 | 0.00 | 0.03 | 0.03 | 40 | 1003.8 |
| 20260509234038 | 27 | 163 | 1.6 | 1.6 | 0.00 | 0.03 | 0.03 | 38 | 1003.7 |
| 20260509233535 | 28 | 153 | 0.0 | 1.6 | 0.00 | 0.03 | 0.03 | 38 | 1003.9 |
| 20260509233033 | 28 | 137 | 0.0 | 0.0 | 0.00 | 0.03 | 0.03 | 36 | 1003.7 |
| 20260509232529 | 28 | 154 | 0.0 | 1.6 | 0.00 | 0.03 | 0.03 | 34 | 1003.7 |
| 20260509232026 | 29 | 144 | 3.2 | 3.2 | 0.00 | 0.03 | 0.03 | 31 | 1003.5 |
| 20260509231522 | 29 | 123 | 0.0 | 0.0 | 0.00 | 0.03 | 0.03 | 39 | 1003.7 |
| 20260509231020 | 30 | 160 | 1.6 | 1.6 | 0.00 | 0.03 | 0.03 | 34 | 1003.7 |
| 20260509230517 | 30 | 137 | 0.0 | 1.6 | 0.00 | 0.03 | 0.03 | 36 | 1003.6 |
| 20260509230014 | 29 | 136 | 0.0 | 0.0 | 0.00 | 0.03 | 0.03 | 30 | 1003.7 |
| 20260509225509 | 30 | 156 | 1.6 | 1.6 | 0.00 | 0.03 | 0.03 | 32 | 1003.7 |
| 20260509225005 | 30 | 145 | 0.0 | 0.0 | 0.00 | 0.03 | 0.03 | 34 | 1003.5 |
| 20260509224500 | 30 | 175 | 3.2 | 3.2 | 0.00 | 0.03 | 0.03 | 30 | 1003.7 |
| 20260509223957 | 30 | 124 | 0.0 | 0.0 | 0.00 | 0.03 | 0.03 | 29 | 1003.9 |
| 20260509223454 | 30 | 166 | 0.0 | 1.6 | 0.00 | 0.03 | 0.03 | 33 | 1003.8 |
| 20260509222952 | 30 | 161 | 1.6 | 1.6 | 0.00 | 0.03 | 0.03 | 27 | 1003.8 |
| 20260509222447 | 30 | 140 | 0.0 | 0.0 | 0.00 | 0.03 | 0.03 | 36 | 1003.8 |
| 20260509221943 | 29 | 133 | 1.6 | 3.2 | 0.00 | 0.03 | 0.03 | 29 | 1003.6 |
| 20260509221440 | 29 | 187 | 4.8 | 4.8 | 0.00 | 0.03 | 0.03 | 29 | 1003.8 |
| 20260509220935 | 28 | 188 | 1.6 | 3.2 | 0.00 | 0.03 | 0.03 | 29 | 1003.5 |
| 20260509220432 | 30 | 146 | 1.6 | 1.6 | 0.00 | 0.03 | 0.03 | 33 | 1003.7 |
| 20260509215928 | 30 | 163 | 1.6 | 3.2 | 0.00 | 0.03 | 0.03 | 29 | 1003.5 |
| 20260509215424 | 29 | 134 | 1.6 | 1.6 | 0.00 | 0.03 | 0.03 | 33 | 1003.5 |
| 20260509214921 | 28 | 152 | 1.6 | 3.2 | 0.00 | 0.03 | 0.03 | 32 | 1003.5 |
| 20260509214418 | 28 | 191 | 8.0 | 9.7 | 0.00 | 0.03 | 0.03 | 30 | 1003.4 |
| 20260509213915 | 28 | 81 | 3.2 | 3.2 | 0.00 | 0.03 | 0.03 | 35 | 1003.6 |
| 20260509213410 | 28 | 177 | 0.0 | 1.6 | 0.00 | 0.03 | 0.03 | 34 | 1003.5 |
| 20260509212909 | 29 | 238 | 4.8 | 4.8 | 0.00 | 0.03 | 0.03 | 30 | 1003.6 |
| 20260509212406 | 28 | 182 | 3.2 | 3.2 | 0.00 | 0.03 | 0.03 | 32 | 1003.5 |
| 20260509211902 | 28 | 295 | 4.8 | 4.8 | 0.00 | 0.03 | 0.03 | 33 | 1003.5 |
| 20260509211358 | 28 | 134 | 0.0 | 0.0 | 0.00 | 0.03 | 0.03 | 31 | 1003.8 |
| 20260509210854 | 28 | 42 | 3.2 | 4.8 | 0.00 | 0.03 | 0.03 | 36 | 1003.7 |
| 20260509210352 | 29 | 183 | 6.4 | 9.7 | 0.00 | 0.03 | 0.03 | 33 | 1003.7 |
| 20260509205852 | 29 | 180 | 4.8 | 4.8 | 0.00 | 0.03 | 0.03 | 30 | 1004.0 |
| 20260509205346 | 30 | 275 | 3.2 | 3.2 | 0.00 | 0.03 | 0.03 | 28 | 1004.0 |
| 20260509204843 | 30 | 146 | 1.6 | 1.6 | 0.00 | 0.03 | 0.03 | 35 | 1003.9 |
| 20260509204339 | 30 | 154 | 1.6 | 1.6 | 0.00 | 0.03 | 0.03 | 38 | 1004.1 |
| 20260509203836 | 28 | 145 | 3.2 | 3.2 | 0.00 | 0.03 | 0.03 | 34 | 1004.0 |
| 20260509203333 | 29 | 225 | 1.6 | 3.2 | 0.00 | 0.03 | 0.03 | 36 | 1004.1 |
| 20260509202829 | 29 | 191 | 1.6 | 3.2 | 0.00 | 0.03 | 0.03 | 42 | 1004.1 |
| 20260509202326 | 29 | 141 | 1.6 | 3.2 | 0.00 | 0.03 | 0.03 | 32 | 1004.2 |
| 20260509201825 | 30 | 97 | 1.6 | 1.6 | 0.00 | 0.03 | 0.03 | 31 | 1004.3 |
| 20260509201322 | 29 | 110 | 0.0 | 0.0 | 0.00 | 0.03 | 0.03 | 35 | 1004.4 |
| 20260509200818 | 30 | 190 | 4.8 | 4.8 | 0.00 | 0.03 | 0.03 | 34 | 1004.4 |
| 20260509200314 | 29 | 120 | 1.6 | 1.6 | 0.00 | 0.03 | 0.03 | 37 | 1004.5 |
| 20260509195810 | 28 | 149 | 1.6 | 1.6 | 0.00 | 0.03 | 0.03 | 32 | 1004.4 |
| 20260509195306 | 28 | 222 | 4.8 | 8.0 | 0.00 | 0.03 | 0.03 | 33 | 1004.5 |
| 20260509194805 | 28 | 222 | 4.8 | 4.8 | 0.00 | 0.03 | 0.03 | 33 | 1004.2 |
| 20260509194301 | 28 | 179 | 3.2 | 3.2 | 0.00 | 0.03 | 0.03 | 41 | 1004.3 |
| 20260509193758 | 28 | 185 | 4.8 | 11.3 | 0.00 | 0.03 | 0.03 | 40 | 1004.5 |
| 20260509193258 | 28 | 205 | 1.6 | 4.8 | 0.00 | 0.03 | 0.03 | 36 | 1004.3 |
| 20260509192754 | 27 | 41 | 1.6 | 1.6 | 0.00 | 0.03 | 0.03 | 37 | 1004.4 |
| 20260509192249 | 28 | 204 | 4.8 | 4.8 | 0.00 | 0.03 | 0.03 | 33 | 1004.5 |
| 20260509191745 | 27 | 161 | 1.6 | 3.2 | 0.00 | 0.03 | 0.03 | 35 | 1004.5 |
| 20260509191242 | 27 | 240 | 4.8 | 4.8 | 0.00 | 0.03 | 0.03 | 35 | 1004.4 |
| 20260509190738 | 27 | 12 | 3.2 | 3.2 | 0.00 | 0.03 | 0.03 | 37 | 1004.5 |
| 20260509190235 | 27 | 11 | 3.2 | 4.8 | 0.00 | 0.03 | 0.03 | 39 | 1004.4 |
| 20260509185732 | 27 | 133 | 1.6 | 1.6 | 0.00 | 0.03 | 0.03 | 37 | 1004.7 |
| 20260509185228 | 27 | 156 | 4.8 | 4.8 | 0.00 | 0.03 | 0.03 | 38 | 1004.7 |
| 20260509184726 | 27 | 187 | 4.8 | 9.7 | 0.00 | 0.03 | 0.03 | 34 | 1004.3 |
| 20260509184223 | 27 | 191 | 4.8 | 4.8 | 0.00 | 0.03 | 0.03 | 39 | 1004.4 |
| 20260509183719 | 27 | 266 | 1.6 | 3.2 | 0.00 | 0.03 | 0.03 | 41 | 1004.5 |
| 20260509183215 | 27 | 257 | 6.4 | 8.0 | 0.00 | 0.03 | 0.03 | 37 | 1004.6 |
| 20260509182711 | 27 | 319 | 6.4 | 8.0 | 0.00 | 0.03 | 0.03 | 31 | 1004.6 |
| 20260509182209 | 27 | 196 | 4.8 | 4.8 | 0.00 | 0.03 | 0.03 | 36 | 1004.6 |
| 20260509181706 | 27 | 116 | 0.0 | 0.0 | 0.00 | 0.03 | 0.03 | 41 | 1005.0 |
| 20260509181203 | 27 | 203 | 1.6 | 1.6 | 0.00 | 0.03 | 0.03 | 41 | 1004.4 |
| 20260509180700 | 27 | 42 | 1.6 | 3.2 | 0.00 | 0.03 | 0.03 | 43 | 1004.7 |
| 20260509180156 | 27 | 156 | 3.2 | 3.2 | 0.00 | 0.03 | 0.03 | 35 | 1004.7 |
| 20260509175652 | 26 | 146 | 1.6 | 1.6 | 0.00 | 0.03 | 0.03 | 46 | 1004.7 |
| 20260509175149 | 26 | 219 | 4.8 | 8.0 | 0.00 | 0.03 | 0.03 | 42 | 1004.7 |
| 20260509174645 | 26 | 119 | 1.6 | 1.6 | 0.00 | 0.03 | 0.03 | 43 | 1004.6 |
| 20260509174145 | 26 | 120 | 1.6 | 1.6 | 0.00 | 0.03 | 0.03 | 45 | 1004.7 |
| 20260509173642 | 26 | 110 | 3.2 | 3.2 | 0.00 | 0.03 | 0.03 | 45 | 1004.7 |
| 20260509173137 | 26 | 312 | 3.2 | 4.8 | 0.00 | 0.03 | 0.03 | 43 | 1004.7 |
| 20260509172634 | 26 | 160 | 3.2 | 3.2 | 0.00 | 0.03 | 0.03 | 44 | 1005.1 |
| 20260509172130 | 25 | 288 | 1.6 | 3.2 | 0.00 | 0.03 | 0.03 | 41 | 1005.0 |
| 20260509171626 | 25 | 163 | 8.0 | 12.9 | 0.00 | 0.03 | 0.03 | 44 | 1005.1 |
| 20260509171123 | 25 | 123 | 1.6 | 1.6 | 0.00 | 0.03 | 0.03 | 46 | 1005.1 |
| 20260509170619 | 25 | 124 | 3.2 | 3.2 | 0.00 | 0.03 | 0.03 | 47 | 1005.0 |
| 20260509170115 | 25 | 302 | 4.8 | 4.8 | 0.00 | 0.03 | 0.03 | 46 | 1005.0 |
| 20260509165614 | 25 | 143 | 0.0 | 0.0 | 0.00 | 0.03 | 0.03 | 49 | 1005.0 |
| 20260509165109 | 25 | 144 | 1.6 | 3.2 | 0.00 | 0.03 | 0.03 | 52 | 1005.0 |
| 20260509164606 | 25 | 130 | 3.2 | 3.2 | 0.00 | 0.03 | 0.03 | 49 | 1005.0 |
| 20260509164101 | 25 | 120 | 1.6 | 1.6 | 0.00 | 0.03 | 0.03 | 46 | 1005.0 |
| 20260509163600 | 24 | 94 | 1.6 | 3.2 | 0.00 | 0.03 | 0.03 | 47 | 1004.8 |
| 20260509163054 | 24 | 71 | 3.2 | 4.8 | 0.00 | 0.03 | 0.03 | 49 | 1005.0 |
| 20260509162551 | 24 | 300 | 3.2 | 3.2 | 0.00 | 0.03 | 0.03 | 58 | 1004.8 |
| 20260509162047 | 23 | 143 | 3.2 | 4.8 | 0.00 | 0.03 | 0.03 | 52 | 1004.8 |
| 20260509161545 | 23 | 193 | 3.2 | 3.2 | 0.00 | 0.03 | 0.03 | 51 | 1005.0 |
| 20260509161044 | 24 | 131 | 1.6 | 3.2 | 0.00 | 0.03 | 0.03 | 52 | 1005.1 |
| 20260509160541 | 24 | 264 | 4.8 | 8.0 | 0.00 | 0.03 | 0.03 | 48 | 1005.0 |
| 20260509160036 | 23 | 152 | 3.2 | 3.2 | 0.00 | 0.03 | 0.03 | 51 | 1004.7 |
| 20260509155532 | 23 | 71 | 1.6 | 1.6 | 0.00 | 0.03 | 0.03 | 54 | 1005.1 |
| 20260509155029 | 23 | 140 | 1.6 | 1.6 | 0.00 | 0.03 | 0.03 | 55 | 1005.0 |
| 20260509154525 | 23 | 144 | 4.8 | 4.8 | 0.00 | 0.03 | 0.03 | 56 | 1004.7 |
| 20260509154023 | 23 | 319 | 3.2 | 3.2 | 0.00 | 0.03 | 0.03 | 61 | 1005.0 |
| 20260509153520 | 22 | 129 | 1.6 | 1.6 | 0.00 | 0.03 | 0.03 | 61 | 1005.0 |
| 20260509153016 | 22 | 153 | 1.6 | 1.6 | 0.00 | 0.03 | 0.03 | 60 | 1005.0 |
| 20260509152512 | 22 | 117 | 1.6 | 1.6 | 0.00 | 0.03 | 0.03 | 63 | 1004.7 |
| 20260509152009 | 22 | 112 | 1.6 | 1.6 | 0.00 | 0.03 | 0.03 | 66 | 1005.1 |
| 20260509151505 | 22 | 129 | 1.6 | 1.6 | 0.00 | 0.03 | 0.03 | 70 | 1004.8 |
| 20260509151004 | 21 | 151 | 3.2 | 3.2 | 0.00 | 0.03 | 0.03 | 70 | 1005.1 |
| 20260509150500 | 21 | 146 | 1.6 | 1.6 | 0.00 | 0.03 | 0.03 | 74 | 1005.2 |
| 20260509145959 | 20 | 100 | 1.6 | 1.6 | 0.00 | 0.03 | 0.03 | 71 | 1005.1 |
| 20260509145454 | 20 | 119 | 1.6 | 1.6 | 0.00 | 0.03 | 0.03 | 76 | 1005.0 |
| 20260509144949 | 20 | 168 | 3.2 | 3.2 | 0.00 | 0.03 | 0.03 | 77 | 1005.0 |
| 20260509144447 | 20 | 128 | 1.6 | 1.6 | 0.00 | 0.03 | 0.03 | 83 | 1004.7 |
| 20260509143944 | 19 | 190 | 3.2 | 3.2 | 0.00 | 0.03 | 0.03 | 89 | 1004.7 |
| 20260509143441 | 17 | 118 | 0.0 | 0.0 | 0.00 | 0.03 | 0.03 | 93 | 1004.8 |
| 20260509142937 | 17 | 41 | 3.2 | 3.2 | 0.00 | 0.03 | 0.03 | 95 | 1004.8 |
| 20260509142434 | 17 | 122 | 1.6 | 1.6 | 0.00 | 0.03 | 0.03 | 99 | 1004.8 |
| 20260509141929 | 17 | 176 | 3.2 | 3.2 | 0.00 | 0.03 | 0.03 | 99 | 1005.0 |
| 20260509141426 | 16 | 156 | 3.2 | 4.8 | 0.00 | 0.03 | 0.03 | 99 | 1004.8 |
| 20260509140923 | 16 | 307 | 4.8 | 8.0 | 0.00 | 0.03 | 0.03 | 99 | 1004.8 |
| 20260509140419 | 16 | 108 | 1.6 | 3.2 | 0.00 | 0.03 | 0.03 | 99 | 1004.6 |
| 20260509135918 | 17 | 104 | 0.0 | 0.0 | 0.00 | 0.03 | 0.03 | 99 | 1004.8 |
| 20260509135415 | 17 | 138 | 1.6 | 1.6 | 0.00 | 0.03 | 0.03 | 99 | 1004.5 |
| 20260509134912 | 17 | 104 | 0.0 | 0.0 | 0.00 | 0.03 | 0.03 | 99 | 1004.6 |
| 20260509134410 | 16 | 103 | 0.0 | 0.0 | 0.00 | 0.03 | 0.03 | 99 | 1004.7 |
| 20260509133906 | 15 | 109 | 0.0 | 1.6 | 0.00 | 0.03 | 0.03 | 99 | 1004.4 |
| 20260509133403 | 15 | 112 | 0.0 | 0.0 | 0.00 | 0.03 | 0.03 | 99 | 1004.6 |
| 20260509132902 | 14 | 85 | 0.0 | 1.6 | 0.00 | 0.03 | 0.03 | 99 | 1004.4 |
| 20260509132359 | 13 | 103 | 0.0 | 0.0 | 0.00 | 0.03 | 0.03 | 99 | 1004.7 |
| 20260509131857 | 13 | 107 | 0.0 | 0.0 | 0.00 | 0.03 | 0.03 | 99 | 1004.5 |
| 20260509131353 | 13 | 96 | 0.0 | 1.6 | 0.00 | 0.03 | 0.03 | 99 | 1004.5 |
| 20260509130850 | 13 | 111 | 0.0 | 0.0 | 0.00 | 0.03 | 0.03 | 99 | 1004.7 |
| 20260509130345 | 12 | 110 | 0.0 | 0.0 | 0.00 | 0.03 | 0.03 | 99 | 1004.7 |
| 20260509125842 | 12 | 116 | 0.0 | 1.6 | 0.00 | 0.03 | 0.03 | 99 | 1004.5 |
| 20260509125338 | 11 | 101 | 0.0 | 0.0 | 0.00 | 0.03 | 0.03 | 99 | 1004.6 |
| 20260509124835 | 11 | 118 | 0.0 | 0.0 | 0.00 | 0.03 | 0.03 | 99 | 1004.6 |
| 20260509124332 | 11 | 126 | 0.0 | 1.6 | 0.00 | 0.03 | 0.03 | 99 | 1004.6 |
| 20260509123830 | 11 | 103 | 0.0 | 0.0 | 0.00 | 0.03 | 0.03 | 99 | 1004.5 |
| 20260509123327 | 10 | 110 | 0.0 | 0.0 | 0.00 | 0.03 | 0.03 | 99 | 1004.5 |
| 20260509122822 | 10 | 107 | 0.0 | 0.0 | 0.00 | 0.03 | 0.03 | 99 | 1004.4 |
| 20260509122320 | 10 | 105 | 0.0 | 0.0 | 0.00 | 0.03 | 0.03 | 99 | 1004.6 |
| 20260509121816 | 8 | 106 | 0.0 | 0.0 | 0.00 | 0.03 | 0.03 | 99 | 1004.3 |
| 20260509121314 | 8 | 109 | 0.0 | 0.0 | 0.00 | 0.03 | 0.03 | 99 | 1004.5 |
| 20260509120812 | 8 | 105 | 0.0 | 0.0 | 0.00 | 0.03 | 0.03 | 99 | 1004.4 |
| 20260509120309 | 7 | 108 | 0.0 | 0.0 | 0.00 | 0.03 | 0.03 | 99 | 1004.4 |
| 20260509115808 | 7 | 110 | 0.0 | 0.0 | 0.00 | 0.03 | 0.03 | 99 | 1004.1 |
| 20260509115306 | 7 | 110 | 0.0 | 0.0 | 0.00 | 0.03 | 0.03 | 99 | 1004.0 |
| 20260509114802 | 7 | 109 | 0.0 | 0.0 | 0.00 | 0.03 | 0.03 | 99 | 1004.1 |
| 20260509114301 | 7 | 108 | 0.0 | 0.0 | 0.00 | 0.03 | 0.03 | 99 | 1004.1 |
| 20260509113759 | 7 | 110 | 0.0 | 0.0 | 0.00 | 0.03 | 0.03 | 99 | 1003.9 |
| 20260509113256 | 7 | 108 | 0.0 | 0.0 | 0.00 | 0.03 | 0.03 | 99 | 1003.9 |
| 20260509112753 | 7 | 110 | 0.0 | 0.0 | 0.00 | 0.03 | 0.03 | 99 | 1003.7 |
| 20260509112250 | 7 | 107 | 0.0 | 0.0 | 0.00 | 0.03 | 0.03 | 99 | 1003.6 |
| 20260509111747 | 7 | 108 | 0.0 | 0.0 | 0.00 | 0.03 | 0.03 | 99 | 1003.6 |
| 20260509111244 | 7 | 118 | 0.0 | 0.0 | 0.00 | 0.03 | 0.03 | 99 | 1003.6 |
| 20260509110741 | 7 | 112 | 0.0 | 0.0 | 0.00 | 0.03 | 0.03 | 99 | 1003.7 |
| 20260509110238 | 7 | 105 | 0.0 | 0.0 | 0.00 | 0.03 | 0.03 | 99 | 1003.5 |
| 20260509105736 | 7 | 106 | 0.0 | 0.0 | 0.00 | 0.03 | 0.03 | 99 | 1003.6 |
| 20260509105233 | 7 | 107 | 0.0 | 0.0 | 0.00 | 0.03 | 0.03 | 99 | 1003.5 |
| 20260509104730 | 7 | 110 | 0.0 | 0.0 | 0.00 | 0.03 | 0.03 | 99 | 1003.7 |
| 20260509104227 | 7 | 109 | 0.0 | 0.0 | 0.00 | 0.03 | 0.03 | 99 | 1003.5 |
| 20260509103725 | 7 | 106 | 0.0 | 0.0 | 0.00 | 0.03 | 0.03 | 99 | 1003.4 |
| 20260509103222 | 7 | 105 | 0.0 | 0.0 | 0.00 | 0.03 | 0.03 | 99 | 1003.3 |
| 20260509102720 | 7 | 107 | 0.0 | 0.0 | 0.00 | 0.03 | 0.03 | 99 | 1003.6 |
| 20260509102217 | 7 | 118 | 0.0 | 0.0 | 0.13 | 0.03 | 0.03 | 99 | 1003.5 |
| 20260509101713 | 7 | 106 | 0.0 | 0.0 | 0.13 | 0.03 | 0.03 | 99 | 1003.4 |
| 20260509101209 | 7 | 107 | 0.0 | 0.0 | 0.00 | 0.00 | 0.00 | 99 | 1003.4 |
| 20260509100707 | 7 | 110 | 0.0 | 0.0 | 0.00 | 0.00 | 0.00 | 99 | 1003.3 |
| 20260509100203 | 7 | 110 | 0.0 | 0.0 | 0.00 | 0.00 | 0.00 | 99 | 1003.4 |
| 20260509095701 | 7 | 109 | 0.0 | 0.0 | 0.00 | 0.00 | 0.00 | 99 | 1003.6 |
| 20260509095158 | 7 | 112 | 0.0 | 0.0 | 0.00 | 0.00 | 0.00 | 99 | 1003.6 |
| 20260509094654 | 8 | 106 | 0.0 | 0.0 | 0.00 | 0.00 | 0.00 | 99 | 1003.5 |
| 20260509094151 | 8 | 106 | 0.0 | 0.0 | 0.00 | 0.00 | 0.00 | 99 | 1003.6 |
| 20260509093650 | 8 | 109 | 0.0 | 0.0 | 0.00 | 0.00 | 0.00 | 99 | 1003.8 |
| 20260509093146 | 8 | 110 | 0.0 | 0.0 | 0.00 | 0.00 | 0.00 | 99 | 1003.9 |
| 20260509092645 | 8 | 108 | 0.0 | 0.0 | 0.00 | 0.00 | 0.00 | 99 | 1003.7 |
| 20260509092143 | 8 | 107 | 0.0 | 0.0 | 0.00 | 0.00 | 0.00 | 99 | 1003.6 |
| 20260509091641 | 8 | 106 | 0.0 | 0.0 | 0.00 | 0.00 | 0.00 | 99 | 1003.6 |
| 20260509091136 | 8 | 106 | 0.0 | 0.0 | 0.00 | 0.00 | 0.00 | 99 | 1003.8 |
| 20260509090634 | 8 | 107 | 0.0 | 0.0 | 0.00 | 0.00 | 0.00 | 99 | 1003.8 |
| 20260509090131 | 8 | 106 | 0.0 | 0.0 | 0.00 | 0.00 | 0.00 | 99 | 1003.6 |
| 20260509085629 | 9 | 106 | 0.0 | 0.0 | 0.00 | 0.00 | 0.00 | 99 | 1003.8 |
| 20260509085124 | 9 | 105 | 0.0 | 0.0 | 0.00 | 0.00 | 0.00 | 99 | 1003.6 |
| 20260509084622 | 9 | 105 | 0.0 | 0.0 | 0.00 | 0.00 | 0.00 | 99 | 1003.8 |
| 20260509084119 | 9 | 105 | 0.0 | 0.0 | 0.00 | 0.00 | 0.00 | 99 | 1003.7 |
| 20260509083616 | 10 | 105 | 0.0 | 0.0 | 0.00 | 0.00 | 0.00 | 99 | 1003.6 |
| 20260509083112 | 10 | 112 | 0.0 | 0.0 | 0.00 | 0.00 | 0.00 | 99 | 1003.6 |
| 20260509082611 | 10 | 126 | 0.0 | 0.0 | 0.00 | 0.00 | 0.00 | 99 | 1003.5 |
| 20260509082107 | 10 | 113 | 0.0 | 0.0 | 0.00 | 0.00 | 0.00 | 99 | 1003.4 |
| 20260509081605 | 10 | 117 | 0.0 | 0.0 | 0.00 | 0.00 | 0.00 | 99 | 1003.6 |
| 20260509081102 | 10 | 112 | 0.0 | 0.0 | 0.00 | 0.00 | 0.00 | 99 | 1003.3 |
| 20260509080600 | 10 | 104 | 0.0 | 0.0 | 0.00 | 0.00 | 0.00 | 99 | 1003.6 |
| 20260509080057 | 10 | 92 | 1.6 | 1.6 | 0.00 | 0.00 | 0.00 | 99 | 1003.3 |
| 20260509075554 | 11 | 115 | 0.0 | 0.0 | 0.00 | 0.00 | 0.00 | 99 | 1003.4 |
| 20260509075052 | 10 | 115 | 0.0 | 0.0 | 0.00 | 0.00 | 0.00 | 99 | 1003.2 |
| 20260509074549 | 10 | 165 | 1.6 | 3.2 | 0.00 | 0.00 | 0.00 | 99 | 1003.3 |
| 20260509074045 | 10 | 128 | 0.0 | 0.0 | 0.00 | 0.00 | 0.00 | 99 | 1003.3 |
| 20260509073542 | 10 | 131 | 1.6 | 1.6 | 0.00 | 0.00 | 0.00 | 99 | 1003.5 |
| 20260509073038 | 10 | 137 | 1.6 | 1.6 | 0.00 | 0.00 | 0.00 | 99 | 1003.3 |
| 20260509072535 | 10 | 108 | 0.0 | 0.0 | 0.00 | 0.00 | 0.00 | 99 | 1003.3 |
| 20260509072032 | 10 | 107 | 0.0 | 0.0 | 0.00 | 0.00 | 0.00 | 99 | 1003.2 |
| 20260509071528 | 11 | 111 | 0.0 | 0.0 | 0.00 | 0.00 | 0.00 | 99 | 1003.3 |
| 20260509071026 | 11 | 103 | 0.0 | 0.0 | 0.00 | 0.00 | 0.00 | 99 | 1003.2 |
| 20260509070523 | 11 | 110 | 0.0 | 0.0 | 0.00 | 0.00 | 0.00 | 99 | 1003.3 |
| 20260509070019 | 11 | 118 | 0.0 | 0.0 | 0.00 | 0.00 | 0.00 | 99 | 1003.2 |
| 20260509065514 | 11 | 132 | 0.0 | 1.6 | 0.00 | 0.00 | 0.00 | 99 | 1003.4 |
| 20260509065011 | 11 | 196 | 4.8 | 4.8 | 0.00 | 0.00 | 0.00 | 99 | 1003.6 |
| 20260509064509 | 11 | 173 | 3.2 | 3.2 | 0.00 | 0.00 | 0.00 | 99 | 1003.5 |
| 20260509064007 | 11 | 128 | 0.0 | 0.0 | 0.00 | 0.00 | 0.00 | 99 | 1003.5 |
| 20260509063502 | 11 | 108 | 0.0 | 0.0 | 0.00 | 0.00 | 0.00 | 99 | 1003.5 |
| 20260509062959 | 11 | 116 | 0.0 | 0.0 | 0.00 | 0.00 | 0.00 | 99 | 1003.3 |
| 20260509062456 | 11 | 112 | 0.0 | 0.0 | 0.00 | 0.00 | 0.00 | 99 | 1003.5 |
| 20260509061954 | 11 | 120 | 0.0 | 0.0 | 0.00 | 0.00 | 0.00 | 99 | 1003.7 |
| 20260509061451 | 11 | 107 | 0.0 | 0.0 | 0.00 | 0.00 | 0.00 | 99 | 1003.5 |
| 20260509060948 | 11 | 107 | 0.0 | 0.0 | 0.00 | 0.00 | 0.00 | 99 | 1003.6 |
| 20260509060446 | 12 | 119 | 0.0 | 0.0 | 0.00 | 0.00 | 0.00 | 99 | 1003.6 |
| 20260509055941 | 12 | 120 | 0.0 | 0.0 | 0.00 | 0.00 | 0.00 | 99 | 1003.8 |
| 20260509055436 | 12 | 120 | 0.0 | 0.0 | 0.00 | 0.00 | 0.00 | 99 | 1003.7 |
| 20260509054933 | 12 | 113 | 0.0 | 0.0 | 0.00 | 0.00 | 0.00 | 99 | 1003.9 |
| 20260509054430 | 12 | 124 | 0.0 | 0.0 | 0.00 | 0.00 | 0.00 | 99 | 1003.9 |
| 20260509053928 | 12 | 115 | 0.0 | 0.0 | 0.00 | 0.00 | 0.00 | 99 | 1003.8 |
| 20260509053426 | 12 | 114 | 0.0 | 0.0 | 0.00 | 0.00 | 0.00 | 99 | 1003.6 |
| 20260509052923 | 12 | 130 | 0.0 | 1.6 | 0.00 | 0.00 | 0.00 | 99 | 1003.7 |
| 20260509052420 | 12 | 124 | 0.0 | 1.6 | 0.00 | 0.00 | 0.00 | 99 | 1003.9 |
| 20260509051918 | 12 | 118 | 0.0 | 0.0 | 0.00 | 0.00 | 0.00 | 99 | 1003.5 |
| 20260509051416 | 12 | 128 | 0.0 | 0.0 | 0.00 | 0.00 | 0.00 | 99 | 1003.3 |
| 20260509050912 | 13 | 134 | 0.0 | 1.6 | 0.00 | 0.00 | 0.00 | 99 | 1003.3 |
| 20260509050409 | 13 | 137 | 0.0 | 1.6 | 0.00 | 0.00 | 0.00 | 99 | 1003.3 |
| 20260509045906 | 13 | 121 | 0.0 | 0.0 | 0.00 | 0.13 | 0.13 | 99 | 1003.1 |
| 20260509045403 | 13 | 101 | 1.6 | 1.6 | 0.00 | 0.13 | 0.13 | 99 | 1003.4 |
| 20260509044900 | 13 | 153 | 1.6 | 3.2 | 0.00 | 0.13 | 0.13 | 99 | 1002.9 |
| 20260509044358 | 13 | 120 | 0.0 | 0.0 | 0.00 | 0.13 | 0.13 | 99 | 1003.2 |
| 20260509043854 | 13 | 138 | 1.6 | 1.6 | 0.00 | 0.13 | 0.13 | 99 | 1003.5 |
| 20260509043350 | 13 | 136 | 1.6 | 1.6 | 0.00 | 0.13 | 0.13 | 99 | 1003.3 |
| 20260509042846 | 14 | 156 | 0.0 | 1.6 | 0.00 | 0.13 | 0.13 | 99 | 1003.3 |
| 20260509042343 | 14 | 129 | 0.0 | 0.0 | 0.00 | 0.13 | 0.13 | 99 | 1003.4 |
| 20260509041840 | 14 | 123 | 0.0 | 0.0 | 0.00 | 0.13 | 0.13 | 99 | 1003.4 |
| 20260509041336 | 14 | 126 | 0.0 | 0.0 | 0.18 | 0.13 | 0.13 | 99 | 1003.2 |
| 20260509040835 | 15 | 173 | 1.6 | 1.6 | 0.18 | 0.13 | 0.13 | 99 | 1003.4 |
| 20260509040332 | 15 | 151 | 1.6 | 1.6 | 0.00 | 0.10 | 0.10 | 98 | 1003.4 |
| 20260509035829 | 15 | 144 | 1.6 | 1.6 | 0.13 | 0.10 | 0.10 | 98 | 1003.6 |
| 20260509035326 | 15 | 140 | 0.0 | 0.0 | 0.13 | 0.10 | 0.10 | 97 | 1003.6 |
| 20260509034822 | 15 | 143 | 1.6 | 1.6 | 0.00 | 0.08 | 0.08 | 97 | 1003.6 |
| 20260509034320 | 15 | 84 | 1.6 | 1.6 | 0.18 | 0.08 | 0.08 | 96 | 1003.6 |
| 20260509033817 | 15 | 134 | 1.6 | 1.6 | 0.18 | 0.08 | 0.08 | 96 | 1003.7 |
| 20260509033314 | 15 | 104 | 0.0 | 0.0 | 0.13 | 0.05 | 0.05 | 94 | 1004.6 |
| 20260509032811 | 15 | 120 | 0.0 | 1.6 | 0.13 | 0.05 | 0.05 | 93 | 1004.2 |
| 20260509032308 | 16 | 88 | 1.6 | 1.6 | 0.18 | 0.03 | 0.03 | 92 | 1004.3 |
| 20260509031806 | 16 | 105 | 0.0 | 1.6 | 0.18 | 0.03 | 0.03 | 90 | 1004.4 |
| 20260509031303 | 16 | 55 | 1.6 | 1.6 | 0.00 | 0.00 | 0.00 | 88 | 1004.3 |
| 20260509030800 | 17 | 105 | 3.2 | 3.2 | 0.00 | 0.00 | 0.00 | 85 | 1003.7 |
| 20260509030258 | 17 | 145 | 3.2 | 3.2 | 0.00 | 0.00 | 0.00 | 83 | 1003.5 |
| 20260509025754 | 17 | 126 | 3.2 | 3.2 | 0.00 | 0.00 | 0.00 | 81 | 1003.2 |
| 20260509025250 | 17 | 36 | 4.8 | 4.8 | 0.00 | 0.00 | 0.00 | 80 | 1003.2 |
| 20260509024746 | 17 | 115 | 0.0 | 0.0 | 0.00 | 0.00 | 0.00 | 81 | 1001.9 |
| 20260509024242 | 17 | 109 | 1.6 | 1.6 | 0.00 | 0.00 | 0.00 | 78 | 1001.7 |
| 20260509023739 | 17 | 117 | 0.0 | 0.0 | 0.00 | 0.00 | 0.00 | 76 | 1001.7 |
| 20260509023236 | 18 | 121 | 0.0 | 0.0 | 0.00 | 0.00 | 0.00 | 77 | 1001.7 |
| 20260509022732 | 18 | 133 | 1.6 | 1.6 | 0.00 | 0.00 | 0.00 | 73 | 1001.3 |
| 20260509022230 | 17 | 84 | 1.6 | 1.6 | 0.00 | 0.00 | 0.00 | 73 | 1001.2 |
| 20260509021727 | 17 | 112 | 0.0 | 1.6 | 0.00 | 0.00 | 0.00 | 74 | 1001.2 |
| 20260509021224 | 17 | 101 | 1.6 | 3.2 | 0.00 | 0.00 | 0.00 | 77 | 1001.2 |
| 20260509020722 | 17 | 117 | 0.0 | 0.0 | 0.00 | 0.00 | 0.00 | 79 | 1001.0 |
| 20260509020219 | 17 | 127 | 0.0 | 0.0 | 0.00 | 0.00 | 0.00 | 81 | 1001.1 |
| 20260509015717 | 17 | 133 | 1.6 | 1.6 | 0.00 | 0.00 | 0.00 | 80 | 1000.8 |
| 20260509015215 | 17 | 143 | 1.6 | 1.6 | 0.00 | 0.00 | 0.00 | 78 | 1000.7 |
| 20260509014711 | 17 | 118 | 0.0 | 0.0 | 0.00 | 0.00 | 0.00 | 79 | 1000.7 |
| 20260509014209 | 17 | 140 | 1.6 | 1.6 | 0.00 | 0.00 | 0.00 | 78 | 1000.9 |